SCP
0 0 0 0 0 0 0 0 0 0 0 0 0 0 0 0 0 0 0 0 0 0 0 0 -0 -0 -0 -0 -0 0 1 2 1 2 2 2 3 3 3 2 2 3 3 3
0 0 0 0 0 0 0 0 0 0 0 0 0 0 0 0 0 0 0 0 0 0 -0 -0 -0 -0 0 0 0 0 1 1 2 2 3 3 3 5 4 3 3 4 3 2
0 0 0 0 0 0 0 0 0 0 0 0 0 0 0 0 0 0 0 -0 0 0 -0 -0 -0 -0 0 0 0 0 0 1 1 2 2 3 4 5 4 4 4 4 3 2
0 0 0 0 0 0 0 0 0 0 -0 -0 0 0 0 0 0 0 0 0 0 0 0 0 0 0 0 0 0 0 0 1 1 2 4 5 5 5 5 5 4 3 2 1
0 0 0 0 0 0 0 0 0 0 0 -0 0 0 0 0 0 0 0 0 0 0 0 0 0 0 0 0 0 0 0 1 3 4 4 6 6 5 5 4 3 3 1 1
0 0 0 0 0 0 0 0 0 0 0 0 -0 0 0 0 0 0 0 0 0 0 0 0 0 1 1 0 0 0 1 2 5 7 6 4 4 4 3 2 2 1 0 0
0 0 0 0 0 0 0 0 0 0 0 0 0 0 0 0 0 0 0 0 0 0 1 1 1 2 2 2 2 3 5 6 5 5 5 4 3 2 2 2 2 0 0 0
0 0 0 0 0 0 0 0 0 0 0 0 0 0 0 0 0 0 0 1 1 1 1 1 2 3 4 5 4 5 6 6 5 5 3 3 2 2 2 2 0 0 0 0
0 0 0 0 0 0 0 0 0 0 0 0 0 0 0 0 1 1 1 2 2 3 4 4 5 7 8 5 6 6 6 5 4 2 2 2 2 1 1 0 0 0 0 0
0 0 0 0 0 0 0 0 0 0 0 0 1 2 3 3 3 2 2 2 2 3 5 7 7 7 6 6 5 4 3 2 2 2 0 0 0 0 0 0 0 0 0 0
0 0 0 0 0 0 0 0 0 0 0 0 0 5 3 3 3 3 2 2 2 3 3 4 4 5 4 3 2 2 1 1 0 0 0 0 0 0 0 0 0 0 0 0
0 0 0 0 0 0 0 0 0 0 0 0 0 5 3 2 2 2 2 2 2 2 2 2 2 2 2 2 1 1 1 0 0 0 0 0 0 0 0 0 0 0 0 0
0 0 0 0 0 0 0 0 0 0 0 0 0 3 3 2 1 1 1 1 1 1 2 2 2 2 1 1 1 1 0 0 0 0 0 0 0 0 0 0 0 0 0 0
0 0 0 0 0 0 0 0 0 0 0 0 2 2 2 2 1 1 1 1 1 2 2 2 2 1 1 1 1 0 0 0 0 0 0 0 0 0 0 0 0 0 0 0
0 0 0 0 0 0 0 0 0 0 0 0 0 1 2 1 1 0 0 0 0 1 1 1 1 0 0 0 0 0 0 0 0 0 0 0 0 0 0 0 0 0 0 0
0 -0 0 0 0 0 0 0 0 0 0 0 0 0 1 0 0 0 0 0 1 1 0 0 0 0 0 0 0 0 0 0 0 0 0 0 0 0 0 0 0 0 0 0
0 0 0 0 0 0 0 0 0 0 0 0 0 0 0 0 0 0 0 0 0 0 0 0 0 0 0 0 0 0 0 0 0 0 0 0 0 0 0 0 0 0 0 0
0 0 0 0 0 0 0 0 0 0 0 0 0 0 0 0 0 0 0 0 0 0 0 0 0 0 0 0 0 0 0 0 0 0 0 0 0 0 0 0 0 0 0 0
0 0 0 0 0 0 0 0 0 0 0 0 0 0 0 0 0 0 0 0 0 0 0 0 0 0 0 0 0 0 0 0 0 0 0 0 0 0 0 0 0 0 0 0
0 0 0 0 0 0 0 0 0 0 0 0 0 0 0 0 0 0 0 0 0 0 0 0 0 0 0 0 0 0 0 0 0 0 0 0 0 0 0 0 0 0 0 0
0 0 0 0 0 0 0 0 0 0 0 0 0 0 0 0 0 0 0 0 0 0 0 0 0 0 0 0 0 0 0 0 0 0 0 0 0 0 0 0 0 0 0 0
0 0 0 0 0 0 0 0 0 0 0 0 0 0 0 0 0 0 0 0 0 0 0 0 0 0 0 0 0 0 0 0 0 0 0 0 0 0 0 0 0 0 0 0
0 0 0 0 0 1 0 0 0 0 0 0 0 0 0 0 0 0 0 0 0 0 0 0 0 0 0 0 0 0 0 0 0 0 0 0 0 0 0 0 0 0 0 0
-0 0 0 0 0 0 0 0 0 0 0 0 0 0 0 0 0 0 0 0 0 0 0 0 0 0 0 0 0 0 0 0 0 0 0 0 0 0 0 0 0 0 0 0
-0 -0 0 0 0 0 0 0 0 0 0 0 0 0 0 0 0 0 0 0 0 0 0 0 0 0 0 0 0 0 0 0 0 0 0 0 0 0 0 0 0 0 0 0
0 0 0 0 0 0 0 0 0 0 0 0 0 0 0 0 0 0 0 0 0 0 0 0 0 0 0 0 0 0 0 0 0 0 0 0 0 0 0 0 0 0 0 0
-0 -0 -0 0 0 0 0 0 0 0 0 0 0 0 0 0 0 0 0 0 0 0 0 0 0 0 0 0 0 0 0 0 0 0 0 0 0 0 0 0 0 0 0 0
Wind_Speed_500mb
30 16 12 14 12 19 17 16 18 21 19 19 19 19 28 34 28 66 76 77 88 91 91 90 89 88 85 88 90 94 98 98 94 93 87 81 76 70 61 52 49 43 41 38
23 30 17 15 16 19 15 8 10 12 18 19 44 44 32 42 38 58 73 78 90 93 98 92 89 91 87 80 81 86 88 89 84 90 90 82 75 65 54 43 39 39 38 34
39 10 11 13 36 15 10 9 17 16 30 15 15 19 28 16 25 37 61 71 72 85 97 100 95 86 74 68 69 69 72 76 72 71 74 78 70 60 48 38 33 36 38 33
12 12 14 22 19 18 17 4 10 10 15 23 27 49 50 34 26 32 44 62 67 69 76 82 73 66 51 46 46 49 47 44 53 55 56 64 63 55 43 34 34 35 33 31
11 19 9 6 6 19 15 6 5 11 21 14 36 25 28 38 37 26 21 55 64 63 62 61 59 48 42 39 37 37 38 35 48 56 49 54 55 46 39 34 34 36 25 20
1 15 13 2 28 40 16 2 14 8 16 10 16 9 13 47 52 39 31 30 58 61 58 54 52 50 45 36 25 23 27 35 44 47 49 42 37 39 39 34 31 25 20 16
4 7 5 32 46 35 14 7 42 38 37 25 12 17 13 41 49 45 39 44 46 45 53 44 45 39 32 26 25 22 20 23 27 27 30 29 32 40 39 32 30 23 20 23
6 8 6 58 12 15 16 34 39 43 44 44 33 30 24 39 44 44 50 48 44 41 41 41 43 41 34 26 19 17 15 15 18 21 26 29 36 40 30 29 27 28 29 26
3 8 8 22 23 31 38 33 45 50 57 56 20 11 34 45 49 49 44 43 42 40 42 45 44 41 38 30 24 21 19 22 24 30 33 31 30 29 32 29 33 32 29 28
5 5 25 10 41 64 63 53 52 56 52 47 22 12 28 36 45 46 45 46 44 44 43 46 41 28 15 19 21 21 27 31 31 30 29 30 29 26 29 31 31 30 31 27
6 13 33 12 64 75 77 75 73 75 55 42 9 15 25 26 29 32 33 34 36 37 39 41 38 32 22 26 28 31 33 37 34 32 32 31 33 33 29 27 21 21 21 17
2 14 9 36 66 63 69 74 69 75 58 34 1 17 25 29 27 27 27 28 34 38 40 39 37 30 30 31 26 28 36 31 33 32 36 38 37 38 32 24 21 20 17 14
6 39 40 55 53 49 61 69 62 65 55 39 5 26 30 26 27 27 30 35 37 37 35 38 35 34 37 40 37 25 28 34 38 41 41 37 33 27 27 26 19 17 20 18
67 50 54 43 48 65 60 64 50 57 49 34 8 31 35 32 32 32 32 32 30 31 37 40 42 40 39 29 25 24 34 39 40 38 35 33 28 21 18 17 20 28 21 19
80 62 54 63 63 60 56 53 53 61 63 44 6 30 40 39 34 33 32 30 32 36 43 44 42 39 33 31 31 36 37 36 31 29 24 21 20 21 18 19 19 19 23 21
44 45 46 37 51 55 50 40 47 56 61 56 19 25 41 40 35 33 33 32 37 44 45 44 41 39 37 35 34 35 34 33 30 23 22 19 19 23 21 20 19 21 17 18
57 54 57 62 59 61 50 46 45 50 57 58 33 28 39 42 36 35 35 33 32 37 43 42 42 41 40 37 35 33 31 29 21 18 21 20 20 21 20 20 21 21 18 20
70 70 66 60 58 57 61 55 45 48 52 57 35 33 45 51 45 41 41 39 37 44 43 40 41 43 40 36 31 27 25 23 24 26 26 27 26 23 22 20 21 19 23 27
75 79 81 79 72 64 64 61 47 45 52 54 33 43 52 49 38 40 44 47 48 50 48 43 42 39 37 33 32 32 30 28 31 28 30 31 27 22 22 19 20 19 23 31
50 68 74 79 75 73 69 52 47 50 47 45 36 47 52 49 42 46 47 49 47 46 48 44 41 41 42 43 38 36 35 32 34 33 37 30 26 23 20 23 21 21 24 36
49 55 63 71 73 59 44 44 46 45 44 37 48 57 60 53 55 51 52 51 45 41 40 38 36 39 40 39 35 31 35 33 40 39 39 31 30 28 26 28 30 27 30 39
49 51 52 57 54 53 44 40 39 43 41 39 54 63 60 58 57 53 49 48 47 42 38 34 31 30 31 31 36 35 35 34 34 40 42 34 33 31 32 31 34 33 34 40
36 43 41 39 43 48 40 36 33 35 33 46 56 66 59 58 54 55 53 46 50 45 40 34 28 25 24 27 25 29 33 34 38 45 38 36 38 35 36 31 32 37 41 45
23 31 35 31 34 41 31 23 30 31 36 50 60 58 56 57 59 55 45 47 49 42 38 34 28 27 26 26 27 26 26 32 36 35 35 36 36 35 33 37 35 37 41 41
52 55 47 41 51 56 45 39 39 42 46 48 50 48 49 51 54 53 50 48 47 47 40 39 31 29 24 22 27 26 25 25 25 26 30 35 37 36 37 34 35 37 45 49
62 55 56 55 50 42 29 30 36 44 49 50 46 41 40 39 39 38 41 45 46 46 46 41 39 35 23 19 33 32 28 23 19 16 23 32 35 37 38 39 39 40 43 53
54 54 51 48 51 47 39 40 33 8 20 21 34 38 34 34 33 28 21 18 27 32 43 46 35 29 24 29 34 35 27 18 15 16 19 20 24 30 33 35 37 36 40 44
Wind_Direction_500mb
210 183 158 181 170 169 181 186 182 229 196 222 248 281 288 306 261 233 225 221 226 229 230 235 238 241 243 244 245 246 246 244 249 252 253 254 255 256 258 261 263 265 266 270
228 212 197 213 211 181 199 182 194 233 244 192 222 236 264 267 266 220 218 224 226 230 233 235 239 243 244 247 249 249 251 256 253 254 257 257 258 258 258 258 255 256 260 261
228 183 116 258 222 179 170 172 162 203 235 178 202 205 231 220 234 222 220 218 220 227 234 232 235 241 248 249 251 255 260 261 260 257 256 257 256 256 251 246 246 258 261 253
188 98 203 249 217 175 180 208 241 236 228 180 212 228 223 219 207 224 218 223 221 225 226 231 230 233 229 231 242 250 253 258 255 255 255 254 252 251 245 237 245 254 249 244
162 180 231 246 186 149 143 104 44 294 281 247 232 226 254 238 207 221 226 228 219 212 211 218 214 207 211 220 223 227 233 243 247 247 244 245 246 243 234 222 237 241 233 230
193 135 175 33 321 332 116 63 353 347 318 281 146 147 244 233 227 222 220 210 213 216 210 206 205 204 195 192 201 213 227 242 251 254 250 245 238 223 209 217 235 218 208 224
239 121 28 348 315 317 103 236 327 335 326 332 197 214 257 213 210 213 210 201 202 199 200 198 189 189 191 200 211 216 228 241 244 240 231 222 208 201 203 213 204 195 207 211
313 82 70 346 30 65 306 319 338 343 349 329 313 263 240 196 189 176 159 157 160 162 173 185 193 200 206 209 210 210 213 220 211 201 191 183 191 194 201 189 193 196 204 178
26 134 192 25 58 11 356 326 346 341 354 355 341 218 165 166 162 163 167 168 173 179 181 188 197 204 205 196 192 188 179 172 175 173 178 176 188 195 177 185 201 189 181 177
40 333 337 259 7 1 358 353 349 352 354 9 5 140 155 161 164 171 176 181 184 187 189 191 194 185 201 189 173 164 167 163 167 177 174 167 175 177 191 188 181 181 177 168
347 333 353 282 344 343 350 359 4 358 360 8 18 139 149 150 158 165 170 174 180 185 185 182 176 175 168 169 165 167 174 170 170 173 173 169 175 172 172 173 173 179 171 167
225 303 260 305 327 340 347 355 359 352 350 15 208 183 155 152 158 161 166 171 175 176 177 174 170 164 158 160 165 178 174 177 174 173 173 174 173 163 157 157 163 160 158 155
301 321 318 314 320 336 338 347 349 351 350 339 210 195 169 163 161 166 175 177 178 177 175 174 168 164 164 164 165 189 201 181 172 166 166 162 163 167 161 146 156 161 160 165
292 302 300 300 310 320 326 340 346 352 354 346 234 197 185 174 169 172 171 171 171 172 172 168 164 165 167 178 184 188 176 167 167 170 166 159 150 144 140 155 181 167 171 191
278 281 281 294 298 300 311 335 337 346 351 352 263 201 190 181 175 174 172 171 170 170 164 161 162 163 169 175 169 163 165 162 159 159 167 167 160 162 172 180 171 175 161 172
270 274 280 274 291 296 310 322 329 333 341 345 300 216 197 188 175 172 172 174 173 168 169 169 169 174 177 175 176 168 163 161 161 167 168 173 171 173 171 169 163 165 163 178
252 258 267 270 270 280 292 300 311 317 323 334 309 240 201 191 185 179 177 180 183 178 178 180 179 173 167 167 167 165 168 166 170 173 164 165 162 158 160 159 162 158 162 168
245 254 259 268 278 276 277 284 300 305 312 321 302 233 204 192 191 182 181 179 181 172 173 177 175 166 164 165 171 177 184 182 167 158 150 147 147 150 154 163 168 171 182 177
244 248 255 258 253 261 268 274 285 295 302 310 273 225 206 194 195 193 187 183 182 177 172 176 177 176 176 175 176 174 170 169 165 162 162 153 157 162 168 171 171 178 195 187
238 239 250 254 251 250 259 263 273 284 290 293 240 216 201 195 202 196 190 185 185 183 178 179 179 176 174 171 170 170 170 174 175 172 174 180 186 182 184 186 189 185 185 187
240 243 252 243 243 242 248 259 269 271 285 260 219 208 201 200 195 189 183 182 183 185 181 177 177 178 183 189 193 191 185 183 189 191 191 193 202 198 194 186 192 190 187 187
251 255 235 219 223 230 254 264 263 264 275 230 210 204 203 198 191 190 194 191 181 178 181 181 186 194 195 198 195 193 197 199 203 202 199 206 195 202 203 201 205 199 193 193
247 212 196 193 213 233 246 247 248 251 249 212 206 202 201 195 195 194 193 191 185 177 177 178 177 183 181 185 187 197 205 208 203 206 206 205 200 208 211 203 206 209 205 198
146 167 174 184 192 173 169 165 212 228 211 203 201 196 197 199 200 199 200 190 187 187 185 187 191 192 190 169 160 175 183 192 197 203 209 208 215 221 216 218 223 219 209 203
90 99 100 116 117 107 115 118 125 148 171 182 189 194 199 205 206 203 201 199 198 199 190 193 191 190 178 158 177 193 187 188 195 199 205 215 219 219 218 222 221 221 212 209
52 52 76 90 93 97 105 111 75 65 98 104 120 140 150 156 159 169 182 188 185 184 186 193 202 198 185 200 204 197 197 192 196 201 205 211 217 220 216 219 222 220 215 207
57 48 60 71 70 68 81 91 98 80 41 50 52 81 109 114 123 133 141 168 182 193 192 188 187 194 197 217 211 204 195 193 202 210 214 217 207 206 209 209 202 211 204 199
Wind_Speed_850mb
30 16 12 14 12 19 17 16 18 21 19 19 19 19 28 34 28 66 76 77 88 91 91 90 89 88 85 88 90 94 98 98 94 93 87 81 76 70 61 52 49 43 41 38
23 30 17 15 16 19 15 8 10 12 18 19 44 44 32 42 38 58 73 78 90 93 98 92 89 91 87 80 81 86 88 89 84 90 90 82 75 65 54 43 39 39 38 34
39 10 11 13 36 15 10 9 17 16 30 15 15 19 28 16 25 37 61 71 72 85 97 100 95 86 74 68 69 69 72 76 72 71 74 78 70 60 48 38 33 36 38 33
12 12 14 22 19 18 17 4 10 10 15 23 27 49 50 34 26 32 44 62 67 69 76 82 73 66 51 46 46 49 47 44 53 55 56 64 63 55 43 34 34 35 33 31
11 19 9 6 6 19 15 6 5 11 21 14 36 25 28 38 37 26 21 55 64 63 62 61 59 48 42 39 37 37 38 35 48 56 49 54 55 46 39 34 34 36 25 20
1 15 13 2 28 40 16 2 14 8 16 10 16 9 13 47 52 39 31 30 58 61 58 54 52 50 45 36 25 23 27 35 44 47 49 42 37 39 39 34 31 25 20 16
4 7 5 32 46 35 14 7 42 38 37 25 12 17 13 41 49 45 39 44 46 45 53 44 45 39 32 26 25 22 20 23 27 27 30 29 32 40 39 32 30 23 20 23
6 8 6 58 12 15 16 34 39 43 44 44 33 30 24 39 44 44 50 48 44 41 41 41 43 41 34 26 19 17 15 15 18 21 26 29 36 40 30 29 27 28 29 26
3 8 8 22 23 31 38 33 45 50 57 56 20 11 34 45 49 49 44 43 42 40 42 45 44 41 38 30 24 21 19 22 24 30 33 31 30 29 32 29 33 32 29 28
5 5 25 10 41 64 63 53 52 56 52 47 22 12 28 36 45 46 45 46 44 44 43 46 41 28 15 19 21 21 27 31 31 30 29 30 29 26 29 31 31 30 31 27
6 13 33 12 64 75 77 75 73 75 55 42 9 15 25 26 29 32 33 34 36 37 39 41 38 32 22 26 28 31 33 37 34 32 32 31 33 33 29 27 21 21 21 17
2 14 9 36 66 63 69 74 69 75 58 34 1 17 25 29 27 27 27 28 34 38 40 39 37 30 30 31 26 28 36 31 33 32 36 38 37 38 32 24 21 20 17 14
6 39 40 55 53 49 61 69 62 65 55 39 5 26 30 26 27 27 30 35 37 37 35 38 35 34 37 40 37 25 28 34 38 41 41 37 33 27 27 26 19 17 20 18
67 50 54 43 48 65 60 64 50 57 49 34 8 31 35 32 32 32 32 32 30 31 37 40 42 40 39 29 25 24 34 39 40 38 35 33 28 21 18 17 20 28 21 19
80 62 54 63 63 60 56 53 53 61 63 44 6 30 40 39 34 33 32 30 32 36 43 44 42 39 33 31 31 36 37 36 31 29 24 21 20 21 18 19 19 19 23 21
44 45 46 37 51 55 50 40 47 56 61 56 19 25 41 40 35 33 33 32 37 44 45 44 41 39 37 35 34 35 34 33 30 23 22 19 19 23 21 20 19 21 17 18
57 54 57 62 59 61 50 46 45 50 57 58 33 28 39 42 36 35 35 33 32 37 43 42 42 41 40 37 35 33 31 29 21 18 21 20 20 21 20 20 21 21 18 20
70 70 66 60 58 57 61 55 45 48 52 57 35 33 45 51 45 41 41 39 37 44 43 40 41 43 40 36 31 27 25 23 24 26 26 27 26 23 22 20 21 19 23 27
75 79 81 79 72 64 64 61 47 45 52 54 33 43 52 49 38 40 44 47 48 50 48 43 42 39 37 33 32 32 30 28 31 28 30 31 27 22 22 19 20 19 23 31
50 68 74 79 75 73 69 52 47 50 47 45 36 47 52 49 42 46 47 49 47 46 48 44 41 41 42 43 38 36 35 32 34 33 37 30 26 23 20 23 21 21 24 36
49 55 63 71 73 59 44 44 46 45 44 37 48 57 60 53 55 51 52 51 45 41 40 38 36 39 40 39 35 31 35 33 40 39 39 31 30 28 26 28 30 27 30 39
49 51 52 57 54 53 44 40 39 43 41 39 54 63 60 58 57 53 49 48 47 42 38 34 31 30 31 31 36 35 35 34 34 40 42 34 33 31 32 31 34 33 34 40
36 43 41 39 43 48 40 36 33 35 33 46 56 66 59 58 54 55 53 46 50 45 40 34 28 25 24 27 25 29 33 34 38 45 38 36 38 35 36 31 32 37 41 45
23 31 35 31 34 41 31 23 30 31 36 50 60 58 56 57 59 55 45 47 49 42 38 34 28 27 26 26 27 26 26 32 36 35 35 36 36 35 33 37 35 37 41 41
52 55 47 41 51 56 45 39 39 42 46 48 50 48 49 51 54 53 50 48 47 47 40 39 31 29 24 22 27 26 25 25 25 26 30 35 37 36 37 34 35 37 45 49
62 55 56 55 50 42 29 30 36 44 49 50 46 41 40 39 39 38 41 45 46 46 46 41 39 35 23 19 33 32 28 23 19 16 23 32 35 37 38 39 39 40 43 53
54 54 51 48 51 47 39 40 33 8 20 21 34 38 34 34 33 28 21 18 27 32 43 46 35 29 24 29 34 35 27 18 15 16 19 20 24 30 33 35 37 36 40 44
Wind_Direction_850mb
210 183 158 181 170 169 181 186 182 229 196 222 248 281 288 306 261 233 225 221 226 229 230 235 238 241 243 244 245 246 246 244 249 252 253 254 255 256 258 261 263 265 266 270
228 212 197 213 211 181 199 182 194 233 244 192 222 236 264 267 266 220 218 224 226 230 233 235 239 243 244 247 249 249 251 256 253 254 257 257 258 258 258 258 255 256 260 261
228 183 116 258 222 179 170 172 162 203 235 178 202 205 231 220 234 222 220 218 220 227 234 232 235 241 248 249 251 255 260 261 260 257 256 257 256 256 251 246 246 258 261 253
188 98 203 249 217 175 180 208 241 236 228 180 212 228 223 219 207 224 218 223 221 225 226 231 230 233 229 231 242 250 253 258 255 255 255 254 252 251 245 237 245 254 249 244
162 180 231 246 186 149 143 104 44 294 281 247 232 226 254 238 207 221 226 228 219 212 211 218 214 207 211 220 223 227 233 243 247 247 244 245 246 243 234 222 237 241 233 230
193 135 175 33 321 332 116 63 353 347 318 281 146 147 244 233 227 222 220 210 213 216 210 206 205 204 195 192 201 213 227 242 251 254 250 245 238 223 209 217 235 218 208 224
239 121 28 348 315 317 103 236 327 335 326 332 197 214 257 213 210 213 210 201 202 199 200 198 189 189 191 200 211 216 228 241 244 240 231 222 208 201 203 213 204 195 207 211
313 82 70 346 30 65 306 319 338 343 349 329 313 263 240 196 189 176 159 157 160 162 173 185 193 200 206 209 210 210 213 220 211 201 191 183 191 194 201 189 193 196 204 178
26 134 192 25 58 11 356 326 346 341 354 355 341 218 165 166 162 163 167 168 173 179 181 188 197 204 205 196 192 188 179 172 175 173 178 176 188 195 177 185 201 189 181 177
40 333 337 259 7 1 358 353 349 352 354 9 5 140 155 161 164 171 176 181 184 187 189 191 194 185 201 189 173 164 167 163 167 177 174 167 175 177 191 188 181 181 177 168
347 333 353 282 344 343 350 359 4 358 360 8 18 139 149 150 158 165 170 174 180 185 185 182 176 175 168 169 165 167 174 170 170 173 173 169 175 172 172 173 173 179 171 167
225 303 260 305 327 340 347 355 359 352 350 15 208 183 155 152 158 161 166 171 175 176 177 174 170 164 158 160 165 178 174 177 174 173 173 174 173 163 157 157 163 160 158 155
301 321 318 314 320 336 338 347 349 351 350 339 210 195 169 163 161 166 175 177 178 177 175 174 168 164 164 164 165 189 201 181 172 166 166 162 163 167 161 146 156 161 160 165
292 302 300 300 310 320 326 340 346 352 354 346 234 197 185 174 169 172 171 171 171 172 172 168 164 165 167 178 184 188 176 167 167 170 166 159 150 144 140 155 181 167 171 191
278 281 281 294 298 300 311 335 337 346 351 352 263 201 190 181 175 174 172 171 170 170 164 161 162 163 169 175 169 163 165 162 159 159 167 167 160 162 172 180 171 175 161 172
270 274 280 274 291 296 310 322 329 333 341 345 300 216 197 188 175 172 172 174 173 168 169 169 169 174 177 175 176 168 163 161 161 167 168 173 171 173 171 169 163 165 163 178
252 258 267 270 270 280 292 300 311 317 323 334 309 240 201 191 185 179 177 180 183 178 178 180 179 173 167 167 167 165 168 166 170 173 164 165 162 158 160 159 162 158 162 168
245 254 259 268 278 276 277 284 300 305 312 321 302 233 204 192 191 182 181 179 181 172 173 177 175 166 164 165 171 177 184 182 167 158 150 147 147 150 154 163 168 171 182 177
244 248 255 258 253 261 268 274 285 295 302 310 273 225 206 194 195 193 187 183 182 177 172 176 177 176 176 175 176 174 170 169 165 162 162 153 157 162 168 171 171 178 195 187
238 239 250 254 251 250 259 263 273 284 290 293 240 216 201 195 202 196 190 185 185 183 178 179 179 176 174 171 170 170 170 174 175 172 174 180 186 182 184 186 189 185 185 187
240 243 252 243 243 242 248 259 269 271 285 260 219 208 201 200 195 189 183 182 183 185 181 177 177 178 183 189 193 191 185 183 189 191 191 193 202 198 194 186 192 190 187 187
251 255 235 219 223 230 254 264 263 264 275 230 210 204 203 198 191 190 194 191 181 178 181 181 186 194 195 198 195 193 197 199 203 202 199 206 195 202 203 201 205 199 193 193
247 212 196 193 213 233 246 247 248 251 249 212 206 202 201 195 195 194 193 191 185 177 177 178 177 183 181 185 187 197 205 208 203 206 206 205 200 208 211 203 206 209 205 198
146 167 174 184 192 173 169 165 212 228 211 203 201 196 197 199 200 199 200 190 187 187 185 187 191 192 190 169 160 175 183 192 197 203 209 208 215 221 216 218 223 219 209 203
90 99 100 116 117 107 115 118 125 148 171 182 189 194 199 205 206 203 201 199 198 199 190 193 191 190 178 158 177 193 187 188 195 199 205 215 219 219 218 222 221 221 212 209
52 52 76 90 93 97 105 111 75 65 98 104 120 140 150 156 159 169 182 188 185 184 186 193 202 198 185 200 204 197 197 192 196 201 205 211 217 220 216 219 222 220 215 207
57 48 60 71 70 68 81 91 98 80 41 50 52 81 109 114 123 133 141 168 182 193 192 188 187 194 197 217 211 204 195 193 202 210 214 217 207 206 209 209 202 211 204 199